This is the latest recevied weather packets stored in our database for station/object WA4TPR. If no packets are shown the sender has not sent any weather packets the latest 1 day(s).
| Time | Temp. | Humidity | Pressure | Rain* | Wind** | Luminosity | Snow |
|---|---|---|---|---|---|---|---|
| 1778033125 | 23.33° C | 83% | 1020.1 hPa | 0 mm | 0.89 m/s, 122° | 0 W/m² | - |
| 1778032822 | 23.33° C | 83% | 1020.3 hPa | 0 mm | 1.34 m/s, 91° | 0 W/m² | - |
| 1778032519 | 23.89° C | 82% | 1020 hPa | 0 mm | 0.89 m/s, 104° | 0 W/m² | - |
| 1778032216 | 23.89° C | 81% | 1019.9 hPa | 0 mm | 0.89 m/s, 122° | 0 W/m² | - |
| 1778031913 | 23.89° C | 81% | 1019.8 hPa | 0 mm | 1.34 m/s, 173° | 0 W/m² | - |
| 1778031609 | 23.89° C | 81% | 1019.7 hPa | 0 mm | 0.89 m/s, 100° | 0 W/m² | - |
| 1778031307 | 23.89° C | 80% | 1019.8 hPa | 0 mm | 1.79 m/s, 113° | 0 W/m² | - |
| 1778031004 | 23.89° C | 80% | 1019.7 hPa | 0 mm | 0.89 m/s, 105° | 0 W/m² | - |
| 1778030700 | 23.89° C | 80% | 1019.8 hPa | 0 mm | 0.89 m/s, 82° | 0 W/m² | - |
| 1778030397 | 23.89° C | 79% | 1019.5 hPa | 0 mm | 0.45 m/s, 161° | 0 W/m² | - |
| 1778030094 | 23.89° C | 79% | 1019.3 hPa | 0 mm | 1.34 m/s, 87° | 0 W/m² | - |
| 1778029791 | 24.44° C | 78% | 1019.3 hPa | 0 mm | 0.89 m/s, 12° | 0 W/m² | - |
| 1778029490 | 24.44° C | 78% | 1019.3 hPa | 0 mm | 1.34 m/s, 121° | 0 W/m² | - |
| 1778029185 | 24.44° C | 77% | 1019.2 hPa | 0 mm | 0.89 m/s, 149° | 0 W/m² | - |
| 1778028884 | 24.44° C | 77% | 1019.2 hPa | 0 mm | 1.79 m/s, 167° | 0 W/m² | - |
| 1778028578 | 24.44° C | 77% | 1019.3 hPa | 0 mm | 0.45 m/s, 160° | 0 W/m² | - |
| 1778028277 | 24.44° C | 76% | 1019.1 hPa | 0 mm | 1.79 m/s, 129° | 0 W/m² | - |
| 1778027972 | 25° C | 76% | 1018.9 hPa | 0 mm | 1.79 m/s, 81° | 0 W/m² | - |
| 1778027669 | 25° C | 76% | 1018.7 hPa | 0 mm | 0.89 m/s, 98° | 0 W/m² | - |
| 1778027366 | 25° C | 75% | 1018.6 hPa | 0 mm | 2.24 m/s, 119° | 0 W/m² | - |
| 1778027062 | 25° C | 75% | 1018.6 hPa | 0 mm | 0.89 m/s, 62° | 0 W/m² | - |
| 1778026757 | 25° C | 74% | 1018.4 hPa | 0 mm | 2.68 m/s, 85° | 0 W/m² | - |
| 1778026455 | 25.56° C | 74% | 1018.5 hPa | 0 mm | 1.79 m/s, 132° | 0 W/m² | - |
| 1778026152 | 25.56° C | 73% | 1018.4 hPa | 0 mm | 2.68 m/s, 126° | 1 W/m² | - |
| 1778025849 | 25.56° C | 72% | 1018.3 hPa | 0 mm | 3.13 m/s, 124° | 2 W/m² | - |
* Rain latest hour (hover to see other rain measurements)
** Current wind speed in m/s (hover to see current wind gust speed)